GW5547 Weather Reports


Display with metric or nautical units.
time (UTC)temp
F
wind
direction
speed
MPH
gust
MPH
rain 1hr
in
rain 24hr
in
rain mn
in
humidity
%
barometer
mb
20260507104527 51 319 0.0 3.0 0.00 0.00 0.00 81 1020.4
20260507103033 51 319 0.0 4.0 0.00 0.00 0.00 81 1020.4
20260507101530 52 319 3.0 7.0 0.00 0.00 0.00 81 1020.5
20260507100032 52 311 2.0 5.0 0.00 0.00 0.00 81 1020.7
20260507094528 52 311 2.0 5.0 0.00 0.00 0.00 82 1020.7
20260507093040 52 312 1.0 4.0 0.00 0.00 0.00 81 1020.8
20260507091534 52 312 0.0 4.0 0.00 0.00 0.00 82 1020.8
20260507090028 52 312 0.0 2.0 0.00 0.00 0.00 83 1020.9
20260507084528 52 0 0.0 2.0 0.00 0.00 0.00 83 1020.9
20260507083030 53 0 0.0 3.0 0.00 0.00 0.00 82 1020.9
20260507081536 53 312 1.0 3.0 0.00 0.00 0.00 82 1021.0
20260507080030 53 312 0.0 2.0 0.00 0.00 0.00 83 1021.0
20260507074528 53 312 2.0 5.0 0.00 0.00 0.00 82 1021.0
20260507073028 53 304 0.0 4.0 0.00 0.00 0.00 82 1021.0
20260507071530 53 304 2.0 5.0 0.00 0.00 0.00 82 1020.8
20260507070028 53 0 1.0 4.0 0.00 0.00 0.00 82 1020.9
20260507064528 53 300 1.0 3.0 0.00 0.00 0.00 81 1021.0
20260507063033 53 300 2.0 4.0 0.00 0.00 0.00 81 1020.9
20260507061529 54 295 1.0 4.0 0.00 0.00 0.00 81 1021.0
20260507060030 54 291 1.0 4.0 0.00 0.00 0.00 80 1021.0
20260507054527 54 323 1.0 4.0 0.00 0.00 0.00 80 1020.9
20260507053030 55 323 0.0 5.0 0.00 0.00 0.00 80 1020.8
20260507051528 55 331 1.0 9.0 0.00 0.00 0.00 81 1020.8
20260507050035 55 297 3.0 7.0 0.00 0.00 0.00 81 1020.8
20260507044529 55 305 3.0 7.0 0.00 0.00 0.00 80 1020.8
20260507043028 56 313 5.0 11.0 0.00 0.00 0.00 80 1020.7
20260507041543 56 321 5.0 9.0 0.00 0.00 0.00 80 1020.4
20260507040029 57 322 3.0 8.0 0.00 0.00 0.00 80 1020.3
20260507034528 57 302 4.0 8.0 0.00 0.00 0.00 80 1020.2
20260507033032 57 321 4.0 8.0 0.00 0.00 0.00 80 1020.0
20260507031528 58 311 4.0 9.0 0.00 0.00 0.00 79 1019.9
20260507030028 59 319 2.0 6.0 0.00 0.00 0.00 78 1019.7
20260507024529 60 319 3.0 6.0 0.00 0.00 0.00 77 1019.4
20260507023030 61 309 2.0 4.0 0.00 0.00 0.00 76 1019.3
20260507021527 62 322 4.0 9.0 0.00 0.00 0.00 75 1019.4
20260507020030 63 313 4.0 9.0 0.00 0.00 0.00 74 1019.6
20260507014546 63 40 2.0 8.0 0.00 0.00 0.00 76 1019.7
20260507013041 64 315 3.0 8.0 0.00 0.00 0.00 75 1019.5
20260507011537 64 313 1.0 6.0 0.00 0.00 0.00 74 1019.6
20260507010033 64 318 1.0 5.0 0.00 0.00 0.00 73 1019.5
20260507004527 64 313 0.0 5.0 0.00 0.00 0.00 72 1019.5
20260507003029 65 317 1.0 6.0 0.00 0.00 0.00 71 1019.5
20260507001530 66 320 3.0 15.0 0.00 0.00 0.00 70 1019.6
20260507000032 66 287 1.0 7.0 0.00 0.00 0.00 69 1019.5
20260506234530 65 0 1.0 5.0 0.00 0.00 0.00 69 1019.6
20260506233028 65 299 1.0 4.0 0.00 0.00 0.00 70 1019.7
20260506231527 64 305 1.0 5.0 0.00 0.00 0.00 72 1019.8
20260506230031 64 0 1.0 5.0 0.00 0.00 0.00 75 1020.0
20260506224530 64 0 0.0 4.0 0.00 0.00 0.00 74 1020.0
20260506223029 64 319 1.0 5.0 0.00 0.00 0.00 76 1020.0
20260506221527 63 0 1.0 5.0 0.00 0.00 0.00 77 1020.1
20260506220030 63 50 0.0 5.0 0.00 0.00 0.00 78 1020.0
20260506214531 62 0 1.0 5.0 0.00 0.00 0.00 78 1020.0
20260506213030 62 320 1.0 5.0 0.00 0.00 0.00 78 1020.4
20260506211527 63 288 0.0 4.0 0.00 0.00 0.00 78 1020.5
20260506210031 62 0 0.0 2.0 0.00 0.00 0.00 78 1020.3
20260506204528 61 0 0.0 4.0 0.00 0.00 0.00 80 1020.4
20260506203035 61 0 0.0 3.0 0.00 0.00 0.00 81 1020.5
20260506201531 60 0 0.0 2.0 0.00 0.00 0.00 82 1020.6
20260506200029 60 0 0.0 4.0 0.00 0.00 0.00 82 1020.7
20260506194530 59 288 0.0 4.0 0.00 0.00 0.00 83 1020.7
20260506193027 59 0 0.0 2.0 0.00 0.00 0.00 84 1020.7
20260506191555 59 0 0.0 2.0 0.00 0.00 0.00 84 1020.7
20260506190030 58 0 0.0 3.0 0.00 0.00 0.00 86 1020.7
20260506184532 58 0 0.0 3.0 0.00 0.00 0.00 87 1020.7
20260506183030 57 0 0.0 2.0 0.00 0.00 0.00 88 1020.6
20260506181535 57 0 0.0 3.0 0.00 0.00 0.00 89 1020.7
20260506180038 57 0 0.0 2.0 0.00 0.00 0.00 90 1020.6
20260506174529 56 0 0.0 1.0 0.00 0.00 0.00 91 1020.4
20260506173035 56 0 0.0 1.0 0.00 0.00 0.00 90 1020.3
20260506171546 56 0 0.0 2.0 0.00 0.00 0.00 92 1020.4
20260506170033 55 0 0.0 3.0 0.00 0.00 0.00 94 1020.3
20260506164528 55 0 0.0 2.0 0.00 0.00 0.00 96 1020.2
20260506163034 54 0 0.0 3.0 0.00 0.00 0.00 96 1020.0
20260506161539 54 0 0.0 2.0 0.00 0.00 0.00 97 1019.9
20260506160032 53 0 0.0 2.0 0.00 0.00 0.00 96 1019.6
20260506154533 53 0 0.0 4.0 0.00 0.00 0.00 96 1020.3
20260506153028 53 326 2.0 8.0 0.00 0.00 0.00 95 1020.3
20260506151530 53 322 2.0 5.0 0.00 0.00 0.00 95 1020.2
20260506150033 54 322 2.0 4.0 0.00 0.00 0.00 93 1020.1
20260506144529 56 325 0.0 3.0 0.00 0.00 0.00 88 1019.7
20260506143031 55 0 0.0 0.0 0.00 0.00 0.00 88 1019.5
20260506141530 55 0 0.0 0.0 0.00 0.00 0.00 89 1019.4
20260506140032 55 0 0.0 0.0 0.00 0.00 0.00 89 1019.4
20260506134605 55 0 0.0 0.0 0.00 0.00 0.00 88 1019.2
20260506133030 55 0 0.0 2.0 0.00 0.00 0.00 90 1019.0
20260506131529 54 0 0.0 0.0 0.00 0.00 0.00 88 1019.1
20260506130028 55 0 0.0 0.0 0.00 0.00 0.00 89 1018.8
20260506124530 55 0 0.0 1.0 0.00 0.00 0.00 88 1018.8
20260506123030 55 0 0.0 1.0 0.00 0.00 0.00 88 1018.9
20260506121527 55 325 0.0 3.0 0.00 0.00 0.00 88 1018.7
20260506120029 55 325 0.0 2.0 0.00 0.00 0.00 88 1018.5
20260506114534 55 0 0.0 4.0 0.00 0.00 0.00 88 1018.4
20260506113033 55 325 1.0 4.0 0.00 0.00 0.00 88 1018.3
20260506111529 55 325 2.0 4.0 0.00 0.00 0.00 87 1018.2
20260506110030 56 0 0.0 2.0 0.00 0.00 0.00 88 1017.9